MST,Max TemperatureF,Mean TemperatureF,Min TemperatureF,Max Dew PointF,MeanDew PointF,Min DewpointF,Max Humidity, Mean Humidity, Min Humidity, Max Sea Level PressureIn, Mean Sea Level PressureIn, Min Sea Level PressureIn, Max VisibilityMiles, Mean VisibilityMiles, Min VisibilityMiles, Max Wind SpeedMPH, Mean Wind SpeedMPH, Max Gust SpeedMPH,PrecipitationIn, CloudCover, Events, WindDirDegrees
2012-12-1,,,,,,,,,,,,,,,,,,,,,,
2012-12-2,,,,,,,,,,,,,,,,,,,,,,
2012-12-3,,,,,,,,,,,,,,,,,,,,,,
2012-12-4,,,,,,,,,,,,,,,,,,,,,,
2012-12-5,39,34,30,34,30,18,100,85,55,30.01,29.92,29.85,10,8,0,45,27,56,0.00,8,Fog-Snow,253
2012-12-6,32,29,26,25,20,12,93,68,51,29.94,29.84,29.75,10,10,2,25,11,36,0.00,8,Snow,245
2012-12-7,28,22,17,23,13,9,100,67,54,,,,10,9,0,29,18,38,0.00,3,Snow,265
2012-12-8,21,13,5,21,8,-8,100,77,35,,,,10,4,0,22,16,32,0.00,6,Snow,275
2012-12-9,10,5,0,5,0,-4,92,79,61,,,,10,7,1,23,8,33,0.00,3,Snow,289
2012-12-10,23,14,5,14,8,-2,92,71,45,29.71,29.71,29.71,10,10,4,17,11,24,0.00,2,Snow,270
2012-12-11,23,18,12,23,13,0,100,79,49,,,,10,7,0,25,9,32,0.00,4,Snow,249
2012-12-12,30,24,19,23,20,16,100,80,64,29.71,29.66,29.63,10,9,0,23,11,34,0.00,7,Fog,235
2012-12-13,30,26,23,23,19,16,86,71,60,29.81,29.81,29.81,10,10,7,17,7,23,0.00,7,,241
2012-12-14,32,28,24,27,17,12,93,62,47,29.62,29.54,29.49,10,10,2,20,10,23,0.00,3,Snow,236
2012-12-15,28,24,19,27,20,10,100,88,59,29.59,29.58,29.58,10,8,0,16,9,24,0.00,4,Fog-Snow,251
2012-12-16,21,18,14,14,11,7,80,73,58,,,,10,8,2,23,11,33,0.00,6,Snow,257
2012-12-17,28,22,17,28,17,9,100,86,63,,,,10,3,0,36,16,48,0.00,8,Snow,244
2012-12-18,15,12,8,9,-1,-9,85,59,41,,,,10,10,10,17,9,26,0.00,8,,274
2012-12-19,14,8,3,-8,-13,-22,56,39,20,,,,10,10,10,17,11,23,0.00,2,,298
2012-12-20,28,12,-5,5,-2,-9,92,52,26,30.06,30.06,30.06,10,10,7,21,10,28,0.00,0,,242
2012-12-21,32,22,12,10,1,-4,62,38,23,29.98,29.98,29.98,10,10,10,25,11,32,0.00,0,,234
2012-12-22,33,28,21,12,-1,-6,46,29,20,29.94,29.89,29.84,10,10,10,22,15,30,0.00,1,,244
2012-12-23,24,18,12,19,13,3,93,76,46,,,,10,7,0,29,13,36,0.00,5,Snow,256
2012-12-24,32,21,10,21,17,9,100,85,51,29.59,29.58,29.58,10,7,0,23,12,30,0.00,8,Snow,304
2012-12-25,19,12,6,10,5,-11,92,78,25,,,,10,7,0,18,10,24,0.00,5,Snow,263
2012-12-26,19,16,12,14,7,-15,93,73,21,,,,10,7,0,16,10,21,0.00,8,Snow,247
2012-12-27,17,14,10,12,9,5,93,84,67,,,,10,6,0,13,3,16,0.00,8,Snow,310
2012-12-28,17,14,10,9,4,-4,79,68,41,,,,10,10,7,18,6,26,0.00,2,,259
2012-12-29,23,16,10,5,-7,-26,79,39,11,,,,10,10,10,18,12,23,0.00,1,,248
2012-12-30,23,16,10,10,5,-6,73,61,33,,,,10,10,10,22,9,28,0.00,1,,283
2012-12-31,19,14,10,7,3,-2,79,62,45,,,,10,10,10,21,5,,0.00,1,,307